Location: *
(37.5724°S, 58.0067°E)
Time: 00:25:09
(UTC+00:00)

Cosmos 1733 - Pass Details

Date: 23 June 2021
Orbit: 503 x 521 km, 82.5° (Epoch: 02 August)

Event Time Altitude Azimuth Distance (km) Brightness Sun altitude
Rises 02:14:53 0° 168° (SSE) 2,642 6.7 -13.2°
Reaches altitude 10° 02:17:44 10° 145° (SE) 1,747 6.1 -12.6°
Maximum altitude 02:20:08 16° 106° (ESE) 1,410 6.2 -12.2°
Drops below altitude 10° 02:22:31 10° 67° (ENE) 1,734 7.4 -11.7°
Sets 02:25:18 0° 44° (NE) 2,612 8.1 -11.2°
